Vorticity
nan nan nan nan nan nan nan nan nan nan nan nan nan nan nan nan nan nan nan nan nan nan nan nan nan nan nan nan nan nan nan nan nan nan nan nan nan nan nan nan nan nan nan nan nan
nan 7 7 7 7 7 7 7 7 6 6 7 7 7 8 12 16 10 16 18 20 8 4 1 5 3 1 6 7 3 3 10 9 12 13 6 4 8 7 4 5 7 14 11 nan
nan 7 7 7 7 7 6 7 7 7 7 8 7 8 9 14 16 19 12 13 10 6 3 1 3 1 -0 6 7 1 6 9 11 10 10 6 6 5 9 9 6 9 9 7 nan
nan 7 7 7 7 7 7 7 7 7 8 8 8 9 15 14 8 11 12 11 8 2 1 9 4 2 3 6 4 1 10 6 11 11 7 7 4 7 5 9 12 13 11 6 nan
nan 7 6 7 7 7 8 8 7 7 8 9 10 14 16 8 10 6 7 9 11 9 9 8 7 1 4 5 5 7 4 8 9 11 6 6 5 7 5 6 14 13 10 4 nan
nan 8 7 7 7 8 8 8 7 8 9 11 14 15 10 2 16 10 5 4 14 14 8 4 8 3 4 15 9 6 4 12 13 12 9 4 5 2 9 11 14 9 6 5 nan
nan 8 7 6 6 8 8 7 8 12 17 18 19 10 7 14 7 6 1 2 10 11 9 9 8 6 5 12 9 10 6 6 14 9 9 7 4 5 10 9 10 8 6 6 nan
nan 7 7 7 8 9 8 7 12 22 26 26 15 3 4 18 7 10 9 8 9 13 13 13 5 5 9 10 11 5 4 4 12 4 9 9 5 14 5 6 8 8 6 7 nan
nan 7 7 8 8 8 8 11 25 23 20 14 3 3 9 9 14 13 14 14 13 14 16 10 9 12 11 2 3 7 5 8 7 5 6 4 8 18 5 5 6 7 6 6 nan
nan 7 7 7 8 8 16 30 23 13 5 -3 7 9 13 8 8 9 15 11 10 11 12 5 5 9 8 6 4 4 8 11 4 12 4 5 1 8 14 6 4 6 7 7 nan
nan 7 8 8 8 12 24 27 16 10 -0 -1 0 3 5 8 5 12 11 6 9 7 5 9 4 9 6 3 1 4 10 4 10 11 5 5 4 3 7 9 8 7 7 6 nan
nan 7 7 7 8 23 21 10 10 7 13 16 4 6 2 1 9 14 5 5 8 5 5 7 11 7 7 8 4 6 7 5 6 6 8 6 6 6 8 10 9 7 7 6 nan
nan 7 8 8 22 24 15 13 -1 10 15 19 20 18 23 13 9 4 6 5 7 6 7 2 11 8 10 7 10 5 7 7 2 6 4 7 13 13 10 9 8 10 9 8 nan
nan 7 6 20 21 12 17 1 1 12 15 21 16 18 15 10 20 19 8 4 8 11 5 8 10 11 6 9 10 6 7 7 5 3 6 9 9 14 15 8 9 10 9 9 nan
nan 8 12 18 16 5 4 4 14 11 8 14 15 12 10 -1 14 30 10 5 4 9 9 8 11 9 6 11 4 6 9 8 8 3 6 1 3 7 13 14 13 12 10 9 nan
nan 7 15 21 13 7 3 14 15 9 15 7 9 6 5 9 2 18 19 3 8 10 6 6 12 9 11 9 7 6 7 14 12 10 13 3 3 8 8 9 9 14 15 11 nan
nan 8 21 15 10 8 13 16 7 8 11 14 8 7 3 15 10 10 17 9 5 9 9 12 3 7 17 11 11 6 3 8 10 8 14 10 2 4 5 8 5 11 17 13 nan
nan 25 26 13 9 7 13 11 6 10 3 0 14 9 4 4 12 12 9 11 6 1 4 14 6 8 6 14 9 9 -3 2 4 2 6 8 12 5 3 0 6 9 16 19 nan
nan 27 12 17 12 11 13 3 6 3 7 6 6 9 9 -2 10 17 13 14 10 2 2 10 13 9 2 11 11 7 6 -1 7 5 4 9 5 8 8 9 12 14 13 11 nan
nan 14 20 14 13 9 11 11 -2 -2 9 13 5 6 11 8 5 8 9 15 18 10 1 1 18 15 12 7 13 8 11 7 8 9 6 7 6 14 11 10 10 11 12 13 nan
nan 10 19 14 7 8 12 13 12 5 4 9 10 3 5 6 7 5 8 13 23 15 8 1 11 12 12 10 6 8 8 10 7 8 8 9 10 5 5 9 7 9 10 10 nan
nan 11 9 8 8 7 9 5 10 20 13 3 6 11 7 5 6 6 8 2 13 26 17 6 1 14 14 11 8 5 10 3 9 8 1 6 13 11 13 7 7 6 1 9 nan
nan 14 9 8 10 11 8 9 3 14 13 12 8 7 10 8 8 11 6 2 3 16 22 15 4 7 13 14 17 12 7 6 2 9 10 5 5 8 9 4 10 14 8 8 nan
nan 16 15 6 5 10 10 14 15 13 10 13 17 13 9 11 8 8 8 9 11 12 6 17 22 7 8 7 9 10 11 12 4 2 5 10 7 11 -1 3 4 4 5 7 nan
nan 7 8 7 4 5 13 11 14 15 17 16 15 16 13 12 10 6 9 8 5 11 10 11 9 13 6 8 8 9 10 7 8 6 5 6 6 7 7 4 4 4 6 9 nan
nan 8 5 10 10 10 12 9 11 15 14 16 14 21 17 11 15 16 13 5 1 3 7 8 11 12 14 12 6 11 9 10 10 7 9 6 10 11 9 3 7 7 7 9 nan
nan nan nan nan nan nan nan nan nan nan nan nan nan nan nan nan nan nan nan nan nan nan nan nan nan nan nan nan nan nan nan nan nan nan nan nan nan nan nan nan nan nan nan nan nan
CAPE
2 2 2 1 1 0 0 0 0 0 0 0 0 0 0 0 0 0 0 0 0 1437 1194 4 317 401 1012 705 625 177 142 107 53 18 96 295 428 626 642 749 549 535 223 531 555
3 2 2 1 1 0 0 0 0 0 0 0 0 0 0 0 0 0 0 0 312 899 8 1 7 367 570 533 231 265 195 75 51 31 86 301 317 740 660 589 598 810 424 572 518
3 2 2 2 0 0 0 0 0 0 0 0 0 0 0 0 0 0 0 0 36 442 0 0 0 22 3 2 256 370 330 44 44 123 125 412 411 410 303 370 507 887 813 688 579
3 2 2 2 2 1 0 0 0 0 0 0 0 0 0 0 0 0 0 0 0 0 0 0 0 0 0 0 82 207 35 0 16 218 118 427 362 268 219 151 325 727 859 659 576
3 2 2 1 1 0 0 2 3 1 1 1 1 1 0 0 0 0 0 1 0 0 0 0 0 0 0 0 0 65 0 0 0 184 293 409 473 110 290 725 357 764 781 658 655
6 6 5 5 4 1 2 6 5 1 1 1 2 0 0 0 0 0 0 0 0 0 0 0 0 0 0 0 0 0 0 7 0 129 411 480 524 130 278 913 608 807 815 750 699
6 5 6 5 1 2 4 6 2 1 1 1 0 0 0 0 0 0 0 0 0 0 0 0 0 0 0 0 0 0 0 60 79 319 531 381 595 629 585 884 773 830 868 708 728
6 4 2 2 2 3 6 5 1 0 0 0 1 0 0 0 0 0 0 0 0 0 0 0 0 0 0 0 0 0 0 66 278 448 516 438 525 569 735 926 884 731 717 640 750
8 5 3 5 3 3 4 1 0 0 0 0 0 0 0 0 0 0 0 0 0 0 0 0 0 0 0 0 0 0 16 26 324 329 434 446 343 601 860 921 984 679 561 612 858
12 8 5 5 2 2 0 0 0 0 0 0 0 0 0 0 0 0 0 0 0 0 0 0 0 0 0 0 0 0 6 15 107 290 414 433 421 491 847 875 912 895 549 568 820
14 12 4 2 0 0 0 0 0 0 0 0 0 0 0 0 0 0 0 0 0 0 0 0 0 0 0 0 0 26 18 38 78 299 353 312 367 474 819 801 731 866 800 649 831
7 9 5 1 0 0 0 0 0 0 0 0 0 0 0 0 0 0 0 0 0 0 0 0 0 0 0 0 0 0 16 38 126 279 286 238 347 382 410 890 735 641 806 833 828
3 3 4 1 0 0 0 0 0 0 0 0 0 0 0 0 0 0 0 0 0 0 0 0 0 0 0 0 0 0 8 31 112 265 276 168 228 283 158 385 897 776 623 744 918
5 2 4 0 0 0 0 0 0 0 0 0 0 0 0 0 0 0 0 0 0 0 0 0 0 0 0 0 0 0 0 20 115 212 197 265 163 125 230 432 661 928 598 629 885
6 1 4 0 0 0 0 0 0 0 0 0 0 0 0 0 0 0 0 0 0 0 0 0 0 0 0 0 0 0 0 5 82 149 182 208 267 145 175 339 540 791 636 367 436
3 0 1 0 0 0 0 0 0 0 0 0 0 0 0 0 0 0 0 0 0 0 0 0 0 0 0 0 0 0 0 0 41 111 156 126 142 100 164 471 312 465 663 396 176
0 0 0 0 0 0 0 0 0 0 0 0 0 0 0 0 0 0 0 0 0 0 0 0 0 0 0 0 0 0 0 41 67 70 83 101 61 19 13 46 151 100 477 581 387
0 0 0 0 0 0 0 0 0 0 0 0 0 0 0 0 0 0 0 0 0 0 0 0 0 0 0 0 0 0 0 11 54 53 68 37 6 10 108 92 56 32 79 391 637
0 0 0 0 0 0 0 0 0 0 0 0 0 0 0 0 0 0 0 0 0 0 0 0 0 0 0 0 0 0 0 0 50 68 72 13 5 0 43 78 15 36 60 141 572
0 0 0 0 0 0 0 0 0 0 0 0 0 0 0 0 0 0 0 0 0 0 0 0 0 0 0 0 0 0 0 0 18 77 71 9 31 0 36 22 0 9 42 108 226
0 0 0 0 0 0 0 0 0 0 0 0 0 0 0 0 0 0 0 0 0 0 0 0 0 0 0 0 0 0 0 0 1 11 44 24 1 0 0 0 0 0 2 28 79
0 0 0 0 0 0 0 0 0 0 0 0 0 0 0 0 0 0 0 0 0 0 0 0 1 0 0 0 0 0 0 0 1 9 17 33 9 0 1 0 0 0 0 0 12
0 0 0 0 0 0 0 0 0 0 0 0 0 0 0 0 0 0 0 0 0 0 0 0 3 7 0 0 0 0 0 0 0 0 69 18 2 2 0 0 1 4 26 11 435
0 0 1 2 0 0 0 4 0 0 0 0 0 0 0 0 0 0 0 0 0 0 0 0 5 0 0 0 0 0 0 0 0 6 4 16 57 22 1 0 0 4 8 33 124
2 2 12 0 68 61 64 56 8 0 0 0 0 0 0 0 0 0 0 0 0 0 0 0 0 7 0 0 2 0 0 0 0 0 0 0 3 16 2 0 0 0 0 7 462
23 20 15 0 0 0 0 0 17 5 13 5 0 0 0 0 0 0 0 0 0 0 0 0 0 5 7 0 0 2 0 0 0 0 0 0 0 0 1 0 0 0 0 8 287
25 21 26 2 0 0 0 0 3 51 0 0 5 0 0 2 4 8 12 0 0 0 0 0 0 33 21 33 41 80 9 2 0 0 0 0 0 0 0 0 0 38 18 48 68